Date String (YYYY-MM-DD hh:mm:ss) UTC,Instrument flags,Ambient pressure (hPa),Sample flow (lpm),Bypass flow (lpm),Sample temperature (°C),Ambient temperature (°C),ASC tube jacket temperature (°C),LED temperature (°C),Box temperature (°C),Sample RH (%),Span deviation,Mass concentration (μg/m³),Mass concentration (μg/m³),Mass concentration (μg/m³)
DateTimeUTC,F1_M11,P_M11,Q1_M11,Q2_M11,T1_M11,T2_M11,T3_M11,T4_M11,T5_M11,U1_M11,ZSPAN_M11,X0_M11,X2_M11,X1_M11
2022-09-19 06:00:00,,0826.1,4.99,0.00,30.2,29.0,00.0,38.9,32.1,21.1,0000.0,0015.94,0006.08,0005.21
2022-09-19 06:01:00,,0825.9,5.00,0.00,30.2,29.0,00.0,38.9,32.1,21.4,0000.0,0015.71,0006.08,0005.23
2022-09-19 06:02:00,,0826.1,5.00,0.00,30.3,29.1,00.0,39.0,32.1,22.0,0000.0,0014.81,0006.07,0005.26
2022-09-19 06:03:00,,0826.0,5.00,0.00,30.3,29.1,00.0,39.0,32.1,22.0,0000.0,0014.80,0006.12,0005.29
2022-09-19 06:04:00,,0825.8,5.00,0.00,30.3,29.1,00.0,39.0,32.2,21.6,0000.0,0013.25,0006.14,0005.31
2022-09-19 06:05:00,,0825.8,5.02,0.00,30.3,29.2,00.0,39.0,32.2,21.2,0000.0,0013.24,0006.13,0005.32
2022-09-19 06:06:00,,0825.8,4.99,0.00,30.4,29.2,00.0,39.0,32.2,21.1,0000.0,0013.39,0006.15,0005.33
2022-09-19 06:07:00,,0825.7,5.01,0.00,30.4,29.2,00.0,39.0,32.2,21.1,0000.0,0014.07,0006.18,0005.34
2022-09-19 06:08:00,,0825.9,4.99,0.00,30.4,29.2,00.0,39.1,32.3,21.2,0000.0,0014.54,0006.22,0005.36
2022-09-19 06:09:00,,0826.0,5.01,0.00,30.4,29.3,00.0,39.1,32.3,21.4,0000.0,0014.28,0006.24,0005.38
2022-09-19 06:10:00,,0825.9,5.00,0.00,30.5,28.7,00.0,39.1,32.3,21.6,0000.0,0013.77,0006.22,0005.40
2022-09-19 06:11:00,,0826.0,5.01,0.00,30.4,27.3,00.0,39.1,32.2,21.7,0000.0,0013.73,0006.23,0005.44
2022-09-19 06:12:00,,0825.8,5.00,0.00,30.4,26.9,00.0,39.0,32.1,21.8,0000.0,0013.49,0006.27,0005.47
2022-09-19 06:13:00,,0826.1,5.01,0.00,30.3,27.1,00.0,39.0,31.9,21.9,0000.0,0013.47,0006.31,0005.48
2022-09-19 06:14:00,,0825.9,5.00,0.00,30.2,27.4,00.0,39.0,31.8,22.1,0000.0,0013.78,0006.30,0005.47
2022-09-19 06:15:00,,0825.7,5.00,0.00,30.2,27.6,00.0,38.9,31.8,22.2,0000.0,0013.92,0006.27,0005.47
2022-09-19 06:16:00,,0825.8,5.00,0.00,30.1,27.9,00.0,38.9,31.8,22.4,0000.0,0014.40,0006.28,0005.48
2022-09-19 06:17:00,,0825.9,4.99,0.00,30.1,28.1,00.0,38.9,31.9,22.5,0000.0,0014.02,0006.26,0005.49
2022-09-19 06:18:00,,0826.1,5.00,0.00,30.1,28.3,00.0,38.9,31.9,22.4,0000.0,0013.68,0006.28,0005.51
2022-09-19 06:19:00,,0826.1,5.01,0.00,30.1,28.4,00.0,38.9,31.9,22.4,0000.0,0012.85,0006.27,0005.52
2022-09-19 06:20:00,,0825.7,5.00,0.00,30.1,28.5,00.0,38.9,31.9,22.3,0000.0,0012.90,0006.28,0005.53
2022-09-19 06:21:00,,0825.8,5.01,0.00,30.1,28.6,00.0,38.9,32.0,22.3,0000.0,0013.83,0006.36,0005.54
2022-09-19 06:22:00,,0825.8,4.99,0.00,30.2,28.7,00.0,38.9,32.0,22.2,-000.0,0014.93,0006.45,0005.54
2022-09-19 06:23:00,,0825.9,5.01,0.00,30.2,28.8,00.0,38.9,32.0,21.9,0000.0,0015.04,0006.44,0005.52
2022-09-19 06:24:00,,0825.9,4.99,0.00,30.2,28.8,00.0,38.9,32.0,21.8,0000.0,0015.65,0006.46,0005.52
2022-09-19 06:25:00,,0826.1,5.01,0.00,30.2,28.8,00.0,38.9,32.0,21.8,0000.0,0015.44,0006.45,0005.51
2022-09-19 06:26:00,,0826.1,4.99,0.00,30.2,28.9,00.0,38.9,32.1,21.8,0000.0,0015.04,0006.49,0005.51
2022-09-19 06:27:00,,0826.0,5.00,0.00,30.2,28.9,00.0,38.9,32.1,21.8,0000.0,0014.39,0006.48,0005.50
2022-09-19 06:28:00,,0825.8,4.99,0.00,30.3,29.0,00.0,39.0,32.1,21.9,0000.0,0014.41,0006.48,0005.50
2022-09-19 06:29:00,,0825.8,5.02,0.00,30.3,29.0,00.0,39.0,32.1,22.0,0000.0,0014.39,0006.47,0005.49
2022-09-19 06:30:00,,0825.9,4.99,0.00,30.3,29.0,00.0,39.0,32.1,22.0,0000.0,0014.26,0006.48,0005.50
2022-09-19 06:31:00,,0826.0,5.01,0.00,30.3,29.1,00.0,39.0,32.2,22.0,0000.0,0014.23,0006.50,0005.51
2022-09-19 06:32:00,,0825.9,5.00,0.00,30.3,29.1,00.0,39.0,32.2,21.9,0000.0,0013.98,0006.48,0005.51
2022-09-19 06:33:00,,0825.9,5.01,0.00,30.4,29.2,00.0,39.0,32.2,21.9,0000.0,0013.07,0006.42,0005.52
2022-09-19 06:34:00,,0826.0,4.99,0.00,30.4,29.2,00.0,39.0,32.2,21.8,0000.0,0012.43,0006.42,0005.54
2022-09-19 06:35:00,,0826.0,5.02,0.00,30.4,29.2,00.0,39.1,32.3,21.7,0000.0,0011.81,0006.39,0005.55
2022-09-19 06:36:00,,0826.0,4.99,0.00,30.4,29.2,00.0,39.1,32.3,21.7,0000.0,0011.93,0006.41,0005.58
2022-09-19 06:37:00,,0826.0,5.01,0.00,30.5,28.3,00.0,39.1,32.3,21.5,0000.8,0012.11,0006.39,0005.59
2022-09-19 06:38:00,,0825.9,5.00,0.00,30.4,27.1,00.0,39.0,32.2,21.5,0000.0,0011.84,0006.39,0005.59
2022-09-19 06:39:00,,0826.0,5.00,0.00,30.4,26.9,00.0,39.0,32.0,21.4,0000.0,0011.72,0006.41,0005.60
2022-09-19 06:40:00,,0825.9,5.00,0.00,30.2,27.1,00.0,39.0,31.8,21.7,0000.0,0011.76,0006.41,0005.61
2022-09-19 06:41:00,,0825.9,4.99,0.00,30.2,27.5,00.0,38.9,31.8,21.7,0000.0,0011.82,0006.41,0005.61
2022-09-19 06:42:00,,0825.9,5.01,0.00,30.1,27.8,00.0,38.9,31.8,21.5,0000.0,0012.11,0006.41,0005.59
2022-09-19 06:43:00,,0825.9,4.99,0.00,30.1,28.0,00.0,38.9,31.8,21.5,0000.0,0011.70,0006.42,0005.58
2022-09-19 06:44:00,,0825.9,5.01,0.00,30.1,28.2,00.0,38.9,31.9,21.3,0000.0,0011.88,0006.42,0005.55
2022-09-19 06:45:00,,0825.8,5.00,0.00,30.1,28.3,00.0,38.9,31.9,21.3,0000.0,0012.19,0006.40,0005.53
2022-09-19 06:46:00,,0825.8,5.00,0.00,30.1,28.5,00.0,38.9,31.9,21.5,0000.0,0012.78,0006.42,0005.52
2022-09-19 06:47:00,,0825.8,4.99,0.00,30.1,28.6,00.0,38.9,31.9,21.5,0000.0,0012.46,0006.39,0005.50
2022-09-19 06:48:00,,0825.9,5.01,0.00,30.1,28.7,00.0,38.9,32.0,21.4,0000.0,0012.30,0006.38,0005.49
2022-09-19 06:49:00,,0826.0,4.99,0.00,30.2,28.7,00.0,38.9,32.0,21.6,0000.0,0012.29,0006.39,0005.50
2022-09-19 06:50:00,,0826.3,5.02,0.00,30.2,28.8,00.0,38.9,32.0,21.7,0000.0,0012.48,0006.34,0005.49
2022-09-19 06:51:00,,0825.9,4.99,0.00,30.2,28.8,00.0,38.9,32.0,21.7,0000.0,0012.70,0006.31,0005.48
2022-09-19 06:52:00,,0825.8,5.01,0.00,30.2,28.9,00.0,38.9,32.0,21.7,0000.0,0012.91,0006.27,0005.49
2022-09-19 06:53:00,,0825.8,4.99,0.00,30.2,28.9,00.0,38.9,32.1,21.8,0000.0,0013.11,0006.26,0005.48
2022-09-19 06:54:00,,0825.7,5.01,0.00,30.2,28.9,00.0,38.9,32.1,21.8,0000.0,0013.13,0006.25,0005.49
2022-09-19 06:55:00,,0825.7,4.99,0.00,30.3,29.0,00.0,39.0,32.1,21.7,0000.0,0012.83,0006.24,0005.50
2022-09-19 06:56:00,,0825.7,5.00,0.00,30.3,29.0,00.0,39.0,32.1,21.7,0000.0,0012.98,0006.27,0005.52
2022-09-19 06:57:00,,0825.7,4.99,0.00,30.3,29.1,00.0,39.0,32.2,21.7,0000.0,0012.82,0006.25,0005.52
2022-09-19 06:58:00,,0825.7,5.01,0.00,30.3,29.1,00.0,39.0,32.2,21.8,0000.0,0012.96,0006.29,0005.52
2022-09-19 06:59:00,,0825.7,4.99,0.00,30.4,29.2,00.0,39.0,32.2,21.7,0000.0,0012.99,0006.33,0005.55
